Wind_Speed
31 25 20 17 14 13 11 10 9 8 6 5 4 4 5 6 10 14 18 22 24 27 29 30 33 35 39 44 46 48 46 50 48 45 45 41 41 40 40 41 43 43 44 47 52 53 56 53 51
29 23 18 16 14 13 11 10 12 10 6 6 4 3 4 6 10 14 18 20 23 24 26 28 29 31 32 39 43 42 42 45 45 44 43 44 42 42 43 42 42 44 45 47 48 49 52 54 57
26 23 18 16 15 13 13 11 11 11 8 8 8 5 3 5 8 14 17 21 23 23 24 27 29 31 33 34 34 35 37 40 43 44 42 44 43 44 44 43 41 43 45 45 46 47 50 53 49
24 22 18 17 16 15 14 13 10 10 10 9 8 8 5 5 8 10 14 18 21 21 22 23 26 30 33 32 30 31 33 34 37 40 46 46 45 47 46 46 46 44 44 47 46 49 49 48 46
21 21 19 18 16 14 16 13 13 9 10 9 9 9 7 6 5 8 10 15 18 17 17 17 19 25 30 32 31 30 32 32 33 36 44 46 46 46 47 47 47 45 46 50 48 51 52 52 50
21 21 21 19 17 16 16 15 12 13 10 10 9 11 10 7 7 6 9 11 14 15 15 16 17 18 20 24 25 25 27 29 31 34 37 40 44 45 44 47 50 50 49 50 52 51 53 52 55
23 20 21 20 19 17 16 17 15 13 13 12 11 11 11 11 8 8 8 9 9 12 15 17 17 17 18 19 22 24 26 27 28 30 32 36 40 42 42 46 50 51 53 54 54 56 57 59 59
23 21 19 20 21 20 18 17 18 14 13 11 12 13 13 12 12 11 9 9 10 11 12 16 19 20 21 21 21 21 21 24 27 29 31 35 36 39 41 44 48 50 52 59 60 60 62 64 64
23 21 21 19 20 22 19 19 19 17 12 13 12 13 14 14 15 14 13 13 13 13 13 14 15 17 18 20 22 23 24 24 24 25 28 30 33 36 38 40 42 44 46 49 52 58 61 63 66
23 21 22 24 22 20 22 20 20 17 15 16 14 13 16 14 15 17 16 16 16 16 17 18 18 18 18 19 20 20 21 23 24 26 27 28 30 32 34 35 37 39 41 43 45 46 48 49 51
24 22 23 24 24 23 22 22 23 17 19 18 16 16 14 16 17 17 18 19 19 19 19 20 21 22 22 24 24 24 25 26 26 27 27 29 29 31 32 33 35 35 37 38 40 44 46 47 47
25 24 24 25 24 24 25 24 24 20 22 22 18 18 17 15 18 19 18 19 19 19 19 20 20 22 23 24 25 26 26 27 27 29 30 29 31 32 33 32 34 32 34 36 38 40 39 37 37
28 27 25 24 25 25 26 26 23 23 24 24 22 21 21 19 20 20 19 20 20 20 22 23 24 24 25 26 27 27 28 28 29 30 31 32 32 32 31 31 35 35 33 37 38 33 31 35 37
32 30 28 24 26 28 27 27 23 24 26 24 26 26 23 22 23 22 22 22 23 24 25 27 28 27 27 28 28 28 28 28 29 30 30 29 29 29 31 32 34 35 35 27 35 42 38 40 41
34 33 30 27 29 27 27 29 23 27 26 27 27 27 28 26 25 25 25 25 26 27 28 29 30 30 29 30 30 29 28 29 30 30 27 28 27 24 22 29 24 34 30 33 42 42 40 49 49
36 33 31 31 32 28 26 30 26 26 27 28 28 29 29 30 28 28 29 29 29 30 30 30 29 31 31 32 31 30 30 31 31 31 28 29 30 27 33 33 34 36 37 40 43 45 47 51 54
37 35 36 34 33 30 28 33 26 27 28 30 29 31 32 32 32 30 31 32 31 31 31 31 31 31 31 31 31 32 31 31 31 31 30 29 32 33 33 34 37 40 43 47 48 49 53 56 58
37 38 38 37 35 30 30 34 30 28 30 32 32 30 32 35 34 34 35 33 31 32 32 32 32 33 33 33 33 33 32 32 33 35 34 34 35 38 40 43 44 47 49 52 53 54 58 61 65
42 39 39 43 36 30 33 34 33 30 33 35 35 33 35 35 35 38 39 37 34 32 34 34 34 36 36 36 36 35 35 34 35 35 36 38 41 43 46 49 51 53 53 55 57 58 60 63 65
48 47 46 45 41 33 36 32 37 34 35 39 41 38 38 35 37 40 40 39 39 38 36 37 36 37 39 39 39 39 37 37 39 40 42 44 48 51 52 52 53 54 56 59 61 62 64 67 69
53 51 54 51 48 39 36 30 37 42 41 42 44 47 41 39 38 40 41 41 42 43 40 39 40 39 39 41 42 43 43 45 47 49 52 54 54 54 53 55 56 58 59 60 62 65 68 70 71
53 60 58 58 53 45 38 27 34 43 47 48 49 46 48 45 43 41 42 42 43 44 43 44 44 44 44 43 44 45 46 48 51 53 53 54 54 54 54 55 58 60 62 64 67 70 70 72 73
58 62 62 61 54 41 37 37 31 42 44 57 53 46 47 50 47 45 45 44 43 44 45 45 46 45 47 47 48 49 49 52 54 54 55 55 56 57 58 59 61 64 67 70 72 71 72 74 75
66 65 68 66 57 39 41 47 26 41 51 60 60 51 49 48 49 48 47 46 45 45 46 47 48 48 50 51 52 53 55 57 58 58 59 60 62 62 62 65 67 70 72 72 72 73 74 76 79
72 73 71 67 65 49 41 40 29 40 56 63 64 56 52 50 50 49 48 48 48 48 49 50 51 52 53 54 55 57 59 60 61 62 64 64 65 67 68 70 71 70 70 72 72 73 75 79 83
76 73 72 74 71 57 41 34 39 43 51 63 60 62 58 56 54 54 52 51 52 52 53 53 53 54 56 57 59 60 61 62 63 65 66 66 67 69 69 69 70 72 73 74 74 78 82 87 89
76 75 76 82 73 64 47 41 42 48 49 53 59 60 62 61 59 58 56 56 58 59 59 58 58 58 60 62 63 64 64 64 66 67 67 68 69 69 71 72 74 73 75 79 82 85 88 89 92
80 80 82 83 79 73 54 46 46 51 46 51 58 60 61 61 62 61 59 55 56 58 59 60 61 63 64 66 65 65 66 67 67 68 68 68 70 72 74 75 76 79 80 83 85 87 90 92 94
86 82 83 83 80 75 65 52 51 51 50 52 59 63 63 63 65 64 62 59 56 57 59 59 59 61 63 64 66 66 65 64 65 68 70 72 73 75 76 78 80 82 84 86 89 90 92 93 96
85 82 85 84 80 81 75 52 52 53 55 57 64 69 66 65 66 67 65 62 61 60 60 61 62 62 61 63 64 64 65 66 68 70 72 73 73 76 78 81 83 86 88 90 91 94 95 98 103
Wind_Direction
289 290 294 295 291 291 296 298 292 289 293 293 284 268 246 222 220 224 225 226 227 231 233 228 224 223 232 236 239 242 238 237 241 237 239 243 250 248 249 249 249 245 241 243 245 247 244 247 246
285 287 294 293 293 296 299 295 290 289 292 300 287 270 232 223 215 216 217 217 217 225 230 231 232 230 235 239 243 245 245 241 240 240 234 241 243 248 252 252 249 248 248 248 253 250 248 249 251
280 283 288 289 292 294 297 294 288 287 296 300 306 309 274 233 223 214 211 211 214 217 221 225 229 232 236 239 241 243 244 245 242 244 232 238 242 247 250 253 254 253 252 254 254 256 254 253 255
279 284 286 286 291 290 287 292 283 290 288 295 304 313 307 268 216 214 215 216 219 221 222 224 228 231 232 237 239 239 242 243 241 238 234 235 240 245 248 252 253 257 256 259 260 261 261 261 264
283 285 287 288 287 289 289 290 290 279 279 286 296 296 296 293 247 229 224 219 222 224 234 239 238 237 237 238 239 242 241 242 241 239 239 240 241 244 248 251 255 257 259 258 260 260 260 261 266
280 284 286 290 288 290 283 281 274 281 277 282 284 286 289 293 279 252 216 218 221 225 229 232 232 233 236 240 243 245 245 249 250 246 244 244 245 245 247 249 251 257 259 261 263 267 270 269 268
280 280 287 287 290 290 285 281 279 275 280 277 277 277 274 286 275 276 254 233 221 232 233 234 238 237 233 235 237 237 239 240 242 246 248 249 251 252 251 250 252 256 259 261 262 264 264 265 265
281 278 278 284 289 288 288 283 281 279 281 272 270 268 272 268 274 270 264 256 248 238 238 236 237 239 243 242 240 239 240 240 239 240 240 243 245 248 249 251 253 254 254 256 258 262 264 265 267
282 283 279 273 278 284 283 283 281 283 283 277 265 266 268 261 264 268 268 256 254 254 247 243 248 250 251 252 250 250 249 248 250 251 251 250 250 253 254 254 255 259 259 259 260 262 264 267 267
281 282 286 284 281 281 284 280 280 282 283 274 277 263 265 263 262 262 260 261 261 256 253 254 256 255 256 258 258 256 256 255 256 258 259 259 259 260 260 262 262 261 262 263 264 266 267 269 270
283 281 279 281 284 285 279 283 281 278 278 277 276 279 272 273 273 271 262 256 255 260 263 263 260 259 260 260 260 259 261 263 264 264 265 264 265 266 266 267 269 271 272 271 270 269 272 272 275
279 279 278 279 280 281 279 277 278 278 275 274 275 276 277 274 273 277 275 268 270 271 273 271 269 267 267 266 265 265 265 266 267 268 268 267 267 267 268 270 269 268 267 266 269 274 279 273 270
277 277 276 275 277 275 272 273 274 276 270 278 281 275 277 278 274 275 277 276 278 282 284 282 278 275 272 270 270 270 271 270 267 269 270 271 272 271 270 270 271 268 267 270 272 271 275 277 273
274 275 277 274 268 272 275 274 278 269 273 273 273 276 276 277 276 278 278 277 280 284 286 285 284 281 278 277 275 273 273 270 266 267 269 268 270 267 265 260 261 266 260 271 270 271 277 282 281
270 273 276 275 271 269 275 274 272 269 271 270 267 267 275 277 276 278 278 278 281 283 283 280 277 277 274 272 270 268 266 267 267 265 259 256 254 262 261 260 278 270 283 283 286 292 296 282 292
269 273 274 272 274 273 269 272 269 267 268 268 267 268 269 273 275 277 276 276 279 282 281 279 276 275 270 267 265 265 264 263 256 254 255 257 253 265 258 277 286 293 294 293 301 301 302 300 301
267 268 268 270 272 273 271 272 274 270 270 269 265 268 271 272 273 276 274 275 280 283 283 281 278 273 270 266 265 265 264 262 257 256 260 262 270 275 279 283 289 293 296 298 299 300 301 302 302
262 261 265 267 267 270 271 273 271 271 269 268 266 267 270 269 271 270 273 278 281 282 281 281 279 272 270 267 264 266 264 260 256 258 265 270 273 282 286 290 293 294 294 296 298 298 299 301 302
259 258 259 260 262 265 267 270 271 273 271 270 270 269 266 267 273 270 274 279 281 279 275 276 278 275 271 271 267 267 266 263 263 265 269 274 279 283 286 288 289 290 292 293 294 294 297 297 298
257 254 256 259 259 259 266 268 274 269 268 272 269 265 264 268 267 269 274 277 279 278 275 276 277 273 269 271 271 269 269 269 269 270 274 279 282 284 287 288 288 288 289 291 293 295 295 296 297
257 254 254 254 257 257 260 264 270 274 269 266 268 272 270 267 268 267 270 273 274 276 282 280 277 276 274 271 270 271 271 273 275 277 280 282 282 283 284 285 287 289 290 291 292 292 293 295 298
257 254 254 257 255 257 261 252 263 268 273 271 267 270 276 274 269 268 270 270 272 276 279 278 278 278 279 279 279 278 279 281 282 282 283 283 284 284 286 288 289 290 291 291 291 293 295 297 298
252 253 254 256 260 258 262 256 238 261 268 270 270 270 269 271 275 276 272 273 274 273 275 276 277 278 279 279 280 281 284 285 284 284 284 284 285 287 289 291 290 290 291 292 294 295 297 299 298
254 254 256 257 261 262 254 258 234 244 256 263 270 273 271 273 277 278 278 277 276 278 278 278 278 278 277 278 281 284 284 283 282 282 282 284 286 287 288 287 288 289 291 294 295 298 298 297 296
254 253 256 259 261 260 257 266 251 242 257 261 267 276 277 278 278 279 279 279 279 278 277 276 276 276 275 276 278 279 280 280 279 279 280 282 284 284 285 287 290 292 292 296 296 295 293 294 299
253 257 258 256 257 266 267 264 261 257 250 265 272 275 275 273 274 275 276 278 278 277 278 277 276 275 274 274 276 278 278 279 281 282 282 282 283 284 286 287 289 293 295 294 293 293 295 298 299
251 254 255 260 265 267 266 265 262 263 263 269 271 273 274 275 274 274 276 278 278 277 276 276 276 275 274 274 276 277 278 280 282 282 282 282 283 284 286 289 292 294 291 290 292 295 297 297 298
251 252 256 262 266 270 269 262 264 266 269 270 273 275 275 276 276 277 279 281 279 277 277 276 276 276 276 276 277 279 280 282 282 281 281 282 283 286 288 290 289 290 291 292 293 296 297 299 300
252 258 261 264 267 269 267 264 262 269 274 273 274 274 275 277 277 279 280 280 279 277 276 276 275 275 275 276 277 279 280 280 279 280 282 284 286 288 288 289 289 290 291 293 295 297 298 301 302
257 259 261 263 263 263 267 270 260 273 272 269 273 273 275 276 277 279 280 279 279 279 279 280 281 280 280 281 280 279 279 279 281 283 284 285 286 288 289 289 290 291 294 295 295 297 298 301 303
Height
10828 10827 10824 10822 10821 10820 10819 10818 10817 10816 10815 10815 10816 10816 10815 10815 10816 10817 10818 10820 10822 10824 10825 10828 10829 10831 10831 10832 10832 10832 10836 10837 10839 10842 10845 10847 10848 10850 10852 10853 10855 10855 10856 10857 10858 10861 10863 10863 10864
10825 10824 10822 10820 10819 10817 10817 10817 10815 10815 10814 10814 10815 10815 10815 10814 10814 10813 10815 10816 10819 10821 10824 10826 10827 10828 10828 10828 10828 10829 10832 10835 10837 10840 10843 10844 10846 10847 10847 10847 10848 10850 10851 10852 10855 10856 10856 10857 10858
10822 10821 10820 10818 10816 10815 10814 10815 10814 10813 10812 10812 10813 10813 10813 10813 10813 10812 10813 10814 10816 10818 10820 10822 10823 10824 10825 10826 10826 10827 10828 10830 10832 10835 10838 10838 10839 10840 10841 10841 10842 10845 10847 10848 10849 10850 10851 10850 10850
10818 10817 10817 10816 10813 10813 10813 10812 10813 10811 10811 10811 10812 10811 10811 10812 10812 10812 10812 10813 10815 10816 10817 10818 10819 10820 10821 10821 10821 10821 10822 10823 10825 10826 10827 10829 10831 10833 10834 10834 10836 10839 10840 10841 10842 10843 10843 10842 10843
10815 10813 10813 10813 10812 10811 10810 10810 10809 10812 10810 10811 10811 10810 10810 10810 10810 10811 10811 10811 10812 10813 10815 10817 10817 10817 10817 10817 10817 10817 10818 10819 10819 10821 10823 10825 10827 10828 10829 10831 10831 10833 10834 10835 10836 10837 10838 10838 10839
10813 10810 10809 10810 10809 10808 10808 10808 10809 10808 10809 10809 10809 10809 10808 10809 10808 10808 10809 10809 10810 10810 10811 10812 10812 10813 10813 10814 10814 10815 10815 10816 10817 10818 10819 10819 10820 10822 10824 10824 10826 10828 10830 10831 10832 10834 10835 10835 10835
10809 10809 10806 10806 10805 10805 10806 10805 10806 10807 10806 10807 10807 10807 10808 10807 10808 10807 10807 10808 10808 10808 10808 10809 10809 10810 10810 10810 10809 10809 10810 10810 10811 10813 10814 10814 10815 10817 10819 10821 10823 10825 10825 10825 10825 10825 10825 10824 10824
10806 10806 10806 10805 10803 10802 10802 10804 10802 10804 10804 10805 10805 10805 10806 10806 10806 10806 10807 10806 10805 10806 10806 10806 10806 10806 10807 10807 10807 10808 10808 10807 10806 10806 10806 10807 10809 10810 10812 10814 10815 10816 10816 10817 10817 10817 10818 10817 10817
10803 10802 10802 10804 10802 10800 10800 10800 10800 10799 10802 10801 10803 10804 10804 10805 10805 10805 10805 10805 10805 10805 10805 10804 10804 10805 10804 10804 10804 10804 10803 10804 10804 10805 10805 10805 10806 10807 10808 10808 10808 10810 10811 10810 10810 10810 10809 10809 10807
10799 10799 10797 10797 10798 10799 10796 10797 10797 10798 10797 10797 10799 10801 10801 10802 10803 10803 10804 10803 10803 10803 10803 10803 10803 10803 10802 10802 10802 10802 10802 10802 10802 10802 10802 10802 10803 10804 10803 10804 10804 10804 10803 10803 10803 10803 10802 10801 10799
10794 10795 10794 10794 10793 10794 10795 10793 10792 10796 10795 10794 10795 10796 10798 10798 10799 10800 10801 10801 10801 10800 10800 10800 10800 10800 10800 10799 10799 10799 10799 10799 10799 10799 10800 10800 10801 10800 10799 10798 10798 10798 10798 10799 10797 10796 10794 10792 10790
10790 10791 10790 10790 10791 10791 10790 10791 10790 10792 10791 10791 10792 10793 10794 10796 10796 10796 10797 10796 10796 10797 10797 10796 10796 10796 10796 10795 10795 10795 10794 10794 10794 10794 10794 10795 10794 10794 10794 10793 10792 10791 10789 10788 10788 10788 10786 10783 10782
10784 10785 10786 10787 10786 10786 10787 10786 10787 10788 10786 10786 10787 10789 10789 10790 10791 10791 10791 10791 10792 10792 10792 10791 10790 10790 10790 10790 10790 10790 10789 10788 10787 10787 10787 10787 10787 10786 10786 10786 10785 10784 10783 10780 10779 10777 10775 10774 10771
10779 10780 10781 10783 10782 10781 10782 10781 10784 10783 10782 10783 10783 10783 10785 10785 10785 10786 10787 10787 10787 10787 10786 10785 10784 10784 10783 10783 10783 10783 10783 10782 10781 10780 10780 10780 10779 10780 10779 10778 10776 10776 10775 10772 10771 10769 10765 10763 10760
10774 10774 10776 10777 10775 10778 10778 10777 10781 10777 10777 10777 10778 10779 10778 10780 10780 10781 10782 10782 10782 10782 10781 10781 10780 10779 10778 10777 10778 10778 10777 10776 10775 10774 10775 10775 10775 10774 10773 10771 10770 10769 10766 10764 10762 10758 10755 10753 10750
10768 10770 10769 10769 10769 10772 10772 10770 10773 10774 10773 10772 10772 10773 10774 10774 10775 10776 10777 10777 10778 10778 10777 10776 10775 10774 10774 10772 10772 10772 10772 10771 10770 10769 10770 10769 10769 10767 10766 10764 10762 10759 10757 10754 10750 10748 10745 10740 10736
10763 10763 10761 10762 10763 10765 10766 10763 10769 10769 10768 10767 10767 10768 10768 10769 10770 10771 10770 10771 10771 10772 10772 10771 10770 10769 10769 10768 10767 10767 10767 10766 10766 10765 10764 10763 10761 10759 10758 10756 10753 10750 10746 10743 10740 10737 10733 10728 10723
10756 10755 10754 10754 10757 10759 10759 10757 10761 10763 10763 10760 10761 10763 10763 10762 10763 10764 10763 10765 10766 10765 10765 10765 10765 10764 10763 10763 10762 10761 10760 10760 10759 10758 10757 10755 10754 10751 10748 10746 10742 10739 10735 10731 10728 10725 10721 10716 10711
10746 10747 10746 10743 10750 10754 10753 10752 10753 10757 10754 10754 10754 10756 10755 10755 10758 10757 10756 10758 10759 10759 10759 10759 10758 10758 10757 10756 10755 10754 10754 10753 10752 10752 10749 10747 10745 10742 10739 10736 10732 10729 10725 10722 10717 10714 10710 10704 10699
10735 10737 10736 10736 10741 10749 10745 10748 10746 10749 10749 10744 10744 10747 10747 10750 10749 10750 10750 10751 10751 10752 10752 10752 10752 10751 10750 10749 10749 10748 10747 10746 10744 10743 10741 10739 10735 10731 10728 10724 10720 10717 10713 10709 10705 10700 10696 10690 10685
10723 10726 10723 10728 10730 10740 10742 10747 10741 10737 10739 10738 10735 10735 10741 10742 10743 10743 10744 10744 10744 10742 10744 10744 10743 10743 10743 10742 10741 10740 10738 10736 10734 10732 10730 10727 10723 10720 10716 10712 10708 10704 10700 10696 10692 10686 10681 10676 10670
10713 10709 10713 10715 10722 10731 10737 10746 10739 10731 10727 10726 10725 10730 10730 10731 10733 10736 10736 10736 10736 10735 10736 10734 10734 10734 10733 10733 10731 10730 10728 10725 10723 10720 10717 10714 10710 10707 10703 10699 10695 10690 10686 10681 10677 10671 10666 10660 10654
10700 10696 10700 10704 10712 10726 10733 10732 10737 10727 10723 10708 10714 10721 10722 10721 10723 10725 10727 10727 10728 10727 10726 10725 10724 10724 10723 10722 10720 10718 10716 10713 10710 10707 10705 10701 10698 10694 10690 10686 10682 10676 10671 10666 10661 10656 10650 10644 10637
10683 10686 10685 10691 10703 10721 10720 10714 10735 10724 10712 10700 10701 10709 10712 10714 10714 10714 10717 10718 10719 10719 10718 10716 10714 10713 10712 10710 10709 10707 10705 10702 10699 10696 10693 10690 10686 10682 10678 10673 10669 10664 10658 10653 10646 10639 10634 10628 10622
10665 10667 10673 10683 10689 10706 10712 10716 10726 10717 10702 10695 10691 10698 10703 10704 10704 10705 10706 10707 10708 10709 10708 10706 10704 10702 10701 10699 10698 10695 10692 10689 10686 10683 10680 10677 10673 10668 10663 10659 10654 10649 10644 10637 10630 10625 10619 10612 10605
10650 10659 10664 10664 10671 10689 10704 10713 10709 10705 10700 10688 10690 10685 10690 10692 10694 10695 10696 10697 10696 10696 10695 10694 10692 10691 10689 10687 10684 10682 10679 10676 10673 10670 10666 10662 10658 10653 10649 10644 10638 10633 10626 10620 10615 10609 10601 10594 10586
10647 10648 10647 10642 10660 10672 10692 10698 10699 10692 10690 10688 10681 10679 10675 10678 10681 10684 10686 10686 10685 10684 10683 10682 10680 10677 10675 10672 10671 10668 10666 10663 10660 10656 10651 10647 10643 10638 10633 10628 10622 10616 10610 10604 10598 10590 10583 10575 10567
10631 10632 10633 10635 10644 10655 10680 10687 10687 10680 10684 10678 10670 10666 10664 10665 10666 10670 10673 10675 10674 10672 10670 10668 10666 10663 10661 10658 10656 10654 10652 10649 10645 10640 10636 10632 10627 10623 10618 10611 10605 10599 10593 10586 10579 10571 10563 10555 10546
10613 10622 10624 10624 10631 10640 10656 10674 10672 10672 10672 10669 10658 10652 10652 10653 10653 10655 10656 10658 10659 10658 10656 10655 10652 10650 10648 10645 10642 10640 10636 10633 10629 10625 10621 10617 10612 10606 10600 10594 10587 10580 10574 10567 10559 10551 10543 10533 10523
10604 10612 10608 10609 10615 10617 10632 10667 10661 10663 10657 10653 10645 10639 10643 10643 10640 10639 10640 10641 10641 10641 10640 10639 10637 10634 10632 10630 10628 10624 10621 10617 10613 10610 10606 10600 10594 10589 10583 10576 10568 10561 10554 10546 10539 10530 10520 10509 10498